User: anonymous   Login
Location: Unspecified
(0.0000°N, 0.0000°E)
Time: 10:23:08
(UTC+00:00)
Language:

AO-73 - Orbit

View from above orbital plane
View from above orbital plane
View from above satellite
View from above satellite

Ground track
Ground track

The orbit data is extracted from the following two-line orbital elements,

1 39444U 13066AE  20219.86145025 +.00000229 +00000-0 +34194-4 0  9993
2 39444 097.5603 217.3417 0059505 104.1554 256.6281 14.82157194360837
Epoch (UTC): 06 August 2020 20:40:29
Eccentricity: 0.0059505
inclination: 97.5603°
perigee height: 581 km
apogee height: 664 km
right ascension of ascending node: 217.3417°
argument of perigee: 104.1554°
revolutions per day: 14.82157194
mean anomaly at epoch: 256.6281°
orbit number at epoch: 36083

The dashed part of the orbit path shows where the satellite is in the earth's shadow,  

DLR